Location: Castle Hill Houses
(40.8186°N, 73.8497°W)
Time: 23:43:59
(UTC+00:00)

ADEOS Rocket - Pass Details

Date: 26 January 2020
Orbit: 859 x 1306 km, 98.7° (Epoch: 23 February)

Event Time Altitude Azimuth Distance (km) Brightness Sun altitude
Rises 10:18:15 0° 141° (SE) 3,422 6.5 -21.4°
Reaches altitude 10° 10:20:43 10° 134° (SE) 2,493 5.9 -20.9°
Maximum altitude 10:25:43 38° 67° (ENE) 1,321 4.2 -20.0°
Drops below altitude 10° 10:30:59 10° 2° (N) 2,623 5.2 -19.0°
Sets 10:33:38 0° 354° (N) 3,622 5.8 -18.5°
